Showing default

COSMOS 1996, 19787

Orbit data source: Space-Track

COSMOS 1996, 19787 is a payload satellite owned by UNKS (CIS) in LEO that was launched on Fri, 10 Feb 1989 UTC via a TSIKLON-3 launch vehicle from the Plesetsk Missile And Space Complex (PKMTR). Payload-class satellites include a variety of spacecraft equipped with specific instruments for various scientific and technological missions. These include communications satellites like Starlink; space stations such as the ISS; scientific satellites like the Hubble; Earth observation satellites from companies like Planet Labs, Umbra, and HawkEye 360; GPS; miniature CubeSats for education and research; and military/defense satellites.

Loading next visibility...
Identifier
19787, 1989-009C
Orbit
LEO
Country
Flag of CISCIS
Related business
Manufacturer
NPO PM
Mission
Defense Communications
Bus & Motor
STRELA-3, Unknown motor
Mass
225 kg wet, 225 kg dry
Launch date (UTC)
1989-02-10 (37 years ago)
Launch vehicle
TSIKLON-3
Launch site
Plesetsk Missile And Space Complex (PKMTR)
Object type
Payload
Rocket body
Debris
Shape & HBR
Cyl, 0.8 m
Radar Cross Section
1.257 m², Large (>1 m²)

Expand to show TLE details & history
Last TLE update: 12 hours ago

TLE from 12 hours ago
0 COSMOS 1996
1 19787U 89009C   25258.86602448  .00000018  00000-0  41047-4 0  9997
2 19787  82.6181 180.6074 0006052 324.1322  96.0698 12.62916796686801
Epoch: 2025-09-15T20:47Z
TLE epoch observation values (Epoch: 2025-09-15T20:47:04.515Z)
Latitude
59.53832°
Longitude
-113.56435°
Altitude
1,421.49 km
Speed
7.155 km/s
True Right ascension
12h 53m 04s
True Declination
59° 24' 02"
Sunlit
Object was in daylight at epoch
Visualization orbit readout
Latitude
Unknown
Longitude
Unknown
Altitude
Unknown
Speed
Unknown
Apparent Right ascension
Unknown
Apparent Declination
Unknown
Sunlit
N/A
Visualization observer readout
Local Sidereal Time
01:57:01
Azimuth
Unknown
Elevation
Unknown
Doppler factor
Unknown
Orbital elements
Apogee altitude
1,412.959 km
Perigee altitude
1,403.534 km
Semi-major axis
7,786.384 km
Eccentricity
0.00061
Inclination
82.6181°
RAAN
180.6074°
Arg. of periapsis
324.1322°
True anomaly
96.13876°
Mean anomaly
96.0698°
Eccentric anomaly
96.10428°
Mean motion
3.15893 °/min
Orbital period
113.96 mins
BSTAR
0.000041047
Loading maneuver chart data...
Computing Atmospheric mass density...
Loading historical data...
Loading historical data...
Loading historical data...
Loading historical data...
Loading historical data...
Loading historical data...
Loading historical data...

Documentation

Showing up to 5 results
|